Terminal Aerodrome Forecast
Issued by NWS Memphis, TN

Home | Current Version | Previous Version | Text Only | Print | Product List | Glossary On
Versions: 1 2 3 4 5 6 7 8 9 10 11 12 13 14 15 16 17 18 19 20
000
FTUS44 KMEG 290303 AAA
TAFJBR
TAF AMD
KJBR 290303Z 2903/2924 03005KT P6SM OVC020
     FM290500 36006KT P6SM OVC009
     FM290800 03005KT P6SM FEW009 BKN030
     FM291600 05006KT P6SM BKN100=

USA.gov is the U.S. government's official web portal to all federal, state and local government web resources and services.